Regional Weather Roundup
Issued by NWS

Home | Current Version | Previous Version | Text Only | Print | Product List | Glossary Off
Versions: 1 2 3 4 5 6 7 8 9 10 11 12 13 14 15 16 17 18 19 20 21 22 23 24 25 26 27 28 29 30 31 32 33 34 35 36 37 38 39 40 41 42 43 44 45 46 47 48 49 50

000
ASUS43 KLOT 011612
RWRIL

ILLINOIS REGIONAL WEATHER ROUNDUP
NATIONAL WEATHER SERVICE CHICAGO/ROMEOVILLE IL
1000 AM CST WED MAR 01 2017

NOTE: "FAIR" INDICATES FEW OR NO CLOUDS BELOW 12,000 FEET WITH NO
SIGNIFICANT WEATHER AND/OR OBSTRUCTIONS TO VISIBILITY.

* THESE STATIONS ARE NOT UNDER NWS QUALITY CONTROL. THEY ALSO MAY NOT
  REPORT WEATHER SUCH AS PRECIPITATION OR FOG.

ILZ001-002-007-009-015-016-024-011700-
NORTHWEST ILLINOIS

CITY           SKY/WX    TMP DP  RH WIND       PRES   REMARKS
MOLINE         CLOUDY    38  33  82 W25G35    29.71R WCI  27
STERLING*      LGT RAIN  38  37  97 W22       29.64R FOG     WCI  27
SAVANNA*       CLOUDY    37  36  93 W14G23    29.66R WCI  29
$$

ILZ003-004-008-010-011-017-018-011700-
NORTH CENTRAL ILLINOIS

CITY           SKY/WX    TMP DP  RH WIND       PRES   REMARKS
ROCKFORD       LGT RAIN  38  35  89 NW14G24   29.61R FOG     WCI  30
FREEPORT*      CLOUDY    36  35  96 W10       29.63R WCI  28
ROCHELLE*      CLOUDY    38  37  96 NW15      29.61R FOG     WCI  29
DE KALB*       CLOUDY    38  37  97 NW17G25   29.58R FOG     WCI  29
PERU*          CLOUDY    39  37  91 W28G35    29.65R FOG     WCI  28
$$

ILZ005-006-012>014-019>023-011700-
NORTHEAST ILLINOIS

CITY           SKY/WX    TMP DP  RH WIND       PRES   REMARKS
CHICAGO-OHARE  LGT RAIN  40  38  93 NW10      29.53R FOG
CHICAGO-MIDWAY LGT RAIN  43  40  89 W21G26    29.53R FOG
AURORA         CLOUDY    41  38  89 W23       29.58R
LANSING*       DRIZZLE   42  42 100 CALM      29.52R
JOLIET*        LGT RAIN  43  40  88 W20G29    29.58R
WAUKEGAN       CLOUDY    38  36  92 NW8       29.51R WCI  32
DUPAGE AIRPORT LGT RAIN  40  36  86 W17       29.56R
KANKAKEE*      CLOUDY    45  41  88 W31G38    29.58R
WHEELING       CLOUDY    39  37  92 NW7       29.53R FOG     WCI  34
MORRIS*        CLOUDY    43  40  91 NW25G32   29.58R
ROMEOVILLE*    CLOUDY    42  41  97 NW23      29.57R
NORTHERLY ISL    N/A     38  37  97 MISG        N/A
$$

LMZ740>746-011700-
SOUTHERN LAKE MICHIGAN

STATION/POSITION SKY/WX   TEMP    WIND        PRES    VSBY  WAVE
                          AIR SEA DIR/SP/G                  HT/PER
                          (F)     (DEG/KT/KT) (MB)    (MI)  (FT/S)
HARRISON CRIB              37     340/ 16/ 17   N/A
BURNHAM HARBOR             39     340/  4/  9   N/A
CALUMET HARBOR             38     330/  6/  9  999.3R
BURNS HARBOR               37     300/ 11/ 14  999.7R
MICHIGAN CITY              36     250/ 14/ 16   N/A
$$

ILZ025>027-034>036-040-047-049-050-058-095>099-011700-
WEST-CENTRAL ILLINOIS

CITY           SKY/WX    TMP DP  RH WIND       PRES   REMARKS
QUINCY         CLOUDY    41  34  76 W23G33    29.84R
GALESBURG*     CLOUDY    37  35  91 W26       29.74R WCI  25
MACOMB*        CLOUDY    39  36  87 W26G35    29.80R WCI  28
JACKSONVILLE*  CLOUDY    42  37  82 W25G33    29.80R
PITTSFIELD*    CLOUDY    43  36  76 W24G33    29.84R
$$

ILZ028>032-037-038-041>044-048-051>054-059>061-011700-
CENTRAL ILLINOIS

CITY           SKY/WX    TMP DP  RH WIND       PRES   REMARKS
PONTIAC        CLOUDY    42  42  99 W30G37    29.64R FOG
BLOOMINGTON    CLOUDY    42  38  85 W28G43    29.68R
DECATUR        CLOUDY    45  38  76 NW29G40   29.73R
PEORIA         CLOUDY    41  36  82 W18G33    29.73R
LACON*         CLOUDY    39  36  87 W18G31    29.68R WCI  30
LINCOLN*       CLOUDY    44  39  82 W12G26    29.74R
SPRINGFIELD    CLOUDY    45  39  79 W21G29    29.77R
TAYLORVILLE    CLOUDY    44  39  83 W25G35    29.77R
$$

ILZ033-039-045-046-055>057-062-063-011700-
EAST-CENTRAL ILLINOIS

CITY           SKY/WX    TMP DP  RH WIND       PRES   REMARKS
CHAMPAIGN      CLOUDY    45  40  82 W26G43    29.67R
RANTOUL*       CLOUDY    46  43  90 W30G40    29.65R
MATTOON        CLOUDY    46  43  89 W25G33    29.70R
PARIS*         CLOUDY    48  46  92 W32G39    29.68R FOG
$$

ILZ079-100>102-011700-
SOUTHWEST ILLINOIS

CITY           SKY/WX    TMP DP  RH WIND       PRES   REMARKS
ALTON          CLOUDY    45  37  76 W25G35    29.82R
BELLEVILLE     CLOUDY    47  41  80 W15G28    29.81R
CAHOKIA*       CLOUDY    47  38  71 W15G30    29.85R
SPARTA*        CLOUDY    47  41  78 W16G26    29.84R
$$

ILZ064>066-069>071-074>076-080>082-084>086-088>090-092>094-011700-
SOUTH-CENTRAL ILLINOIS

CITY           SKY/WX    TMP DP  RH WIND       PRES   REMARKS
CARBONDALE     CLOUDY    52  45  77 NW13G23   29.82R
CAIRO*         PTSUNNY   59  50  74 W17G26    29.83R
EFFINGHAM*     CLOUDY    48  45  89 W20G31    29.74R
MARION         CLOUDY    55  50  82 W13G22    29.81R
MT. VERNON     CLOUDY    50  42  74 W12G24    29.80R
CENTRALIA*     CLOUDY    48  43  81 W22G32    29.79R
SALEM*         CLOUDY    49  42  75 W23G37    29.77R
METROPOLIS*    PTSUNNY   62  51  68 W16G23    29.80R
$$

ILZ067-068-072-073-078-083-087-091-011700-
SOUTHEAST ILLINOIS

CITY           SKY/WX    TMP DP  RH WIND       PRES   REMARKS
LAWRENCEVILLE  CLOUDY    54  47  77 W21G30    29.71R
FLORA*         CLOUDY    52  46  80 W20G30    29.75R
FAIRFIELD*     CLOUDY    53  46  77 W9G16     29.76R
HARRISBURG*    CLOUDY    54  48  80 W14G25    29.80R
ROBINSON*      CLOUDY    51  46  83 W23G31    29.71R
$$

ABBREVIATIONS USED IN REMARKS
   TC - TEMPERATURE IN CELSIUS
  WCI - WIND CHILL INDEX
   HX - HEAT INDEX
  VSB - VISIBILITY
$$




USA.gov is the U.S. government's official web portal to all federal, state and local government web resources and services.